SL-8 DEB, 1549

Orbit data source: Space-Track

SL-8 DEB, 1549 is space debris in LEO originally from a launch on Mon, 15 Mar 1965 UTC launched from the Tyuratam Missile And Space Complex (TTMTR). Debris objects in space refer to the collection of defunct objects orbiting the Earth. Examples of debris include non-operational satellites, rocket bodies, and fragments generated from explosions, collisions, or faulty payload assembly.

Loading next visibility...
Identifier
1549, 1965-020CV
Orbit
LEO
Country
Flag of CISCIS
Related business
Manufacturer
Unknown
Mission
Spacecraft
Bus & Motor
Unknown
Mass
Unknown
Launch date (UTC)
1965-03-15 (61 years ago)
Launch vehicle
Unknown
Launch site
Tyuratam Missile And Space Complex (TTMTR)
Object type
Payload
Rocket body
Debris
Shape & HBR
Unknown shape, 0.1 m
Radar Cross Section
Medium (>0.1 m² and <1 m²)

Expand to show TLE details & history
Last TLE update: 16 hours ago

TLE from 16 hours ago
0 SL-8 DEB
1 01549U 65020CV  26174.93535061 -.00001065  00000-0 -12763-2 0  9999
2 01549  56.1633 264.1089 0839768 113.5530 255.5835 12.64482016815791
Epoch: 2026-06-23T22:26Z
TLE epoch observation values (Epoch: 2026-06-23T22:26:54.292Z)
Latitude
-0.00001°
Longitude
15.28289°
Altitude
1,618.025 km
Speed
6.965 km/s
True Right ascension
17h 36m 26s
True Declination
0° 00' 00"
Sunlit
Object was in full shadow at epoch
Visualization orbit readout
Latitude
Unknown
Longitude
Unknown
Altitude
Unknown
Speed
Unknown
Apparent Right ascension
Unknown
Apparent Declination
Unknown
Sunlit
N/A
Visualization observer readout
Local Sidereal Time
01:21:13
Azimuth
Unknown
Elevation
Unknown
Doppler factor
Unknown
Orbital elements
Apogee altitude
2,057.849 km
Perigee altitude
750.76 km
Semi-major axis
7,782.441 km
Eccentricity
0.08398
Inclination
56.1633°
RAAN
264.1089°
Arg. of periapsis
113.553°
True anomaly
246.53866°
Mean anomaly
255.5835°
Eccentric anomaly
251.03321°
Mean motion
3.16133 °/min
Orbital period
113.88 mins
BSTAR
-0.0012763
Loading maneuver chart data...
Computing Atmospheric mass density...
Loading historical data...
Loading historical data...
Loading historical data...
Loading historical data...
Loading historical data...
Loading historical data...
Loading historical data...

Documentation

Showing up to 5 results
|